Time,TemperatureF,DewpointF,PressureIn,WindDirection,WindDirectionDegrees,WindSpeedMPH,WindSpeedGustMPH,Humidity,HourlyPrecipIn,Conditions,Clouds,dailyrainin,SolarRadiationWatts/m^2,SoftwareType,DateUTC
2013-02-28 00:01:00,56.0,51.0,-100.00,WNW,303,8.0,-999.0,84,0.00,,,-99.99,0.000000,,2013-02-28 05:01:00,
2013-02-28 00:11:00,56.0,51.0,-100.00,WNW,302,6.0,-999.0,85,0.00,,,-99.99,0.000000,,2013-02-28 05:11:00,
2013-02-28 00:22:00,56.0,51.0,-100.00,WNW,302,6.0,-999.0,85,0.00,,,-99.99,0.000000,,2013-02-28 05:22:00,
2013-02-28 00:32:00,55.0,51.0,-100.00,WNW,299,6.0,-999.0,86,0.00,,,-99.99,0.000000,,2013-02-28 05:32:00,
2013-02-28 00:42:00,55.0,51.0,-100.00,NW,304,6.0,-999.0,87,0.00,,,-99.99,0.000000,,2013-02-28 05:42:00,
2013-02-28 00:52:00,55.0,51.0,-100.00,NW,304,6.0,-999.0,87,0.00,,,-99.99,0.000000,,2013-02-28 05:52:00,
2013-02-28 01:01:00,54.0,51.0,-100.00,NW,309,6.0,-999.0,87,0.00,,,-99.99,0.000000,,2013-02-28 06:01:00,
2013-02-28 01:11:00,54.0,51.0,-100.00,NW,310,6.0,-999.0,88,0.00,,,-99.99,0.000000,,2013-02-28 06:11:00,
2013-02-28 01:22:00,54.0,51.0,-100.00,NW,310,6.0,-999.0,88,0.00,,,-99.99,0.000000,,2013-02-28 06:22:00,
2013-02-28 01:32:00,54.0,51.0,-100.00,NW,313,6.0,-999.0,89,0.00,,,-99.99,0.000000,,2013-02-28 06:32:00,
2013-02-28 01:42:00,54.0,51.0,-100.00,NW,309,6.0,-999.0,89,0.00,,,-99.99,0.000000,,2013-02-28 06:42:00,
2013-02-28 01:52:00,54.0,51.0,-100.00,NW,309,6.0,-999.0,89,0.00,,,-99.99,0.000000,,2013-02-28 06:52:00,
2013-02-28 02:01:00,53.0,50.0,-100.00,NW,316,6.0,-999.0,89,0.00,,,-99.99,0.000000,,2013-02-28 07:01:00,
2013-02-28 02:11:00,53.0,50.0,-100.00,NW,313,6.0,-999.0,90,0.00,,,-99.99,0.000000,,2013-02-28 07:11:00,
2013-02-28 02:21:00,53.0,50.0,-100.00,NW,313,6.0,-999.0,90,0.00,,,-99.99,0.000000,,2013-02-28 07:21:00,
2013-02-28 02:32:00,53.0,50.0,-100.00,NW,307,6.0,-999.0,90,0.00,,,-99.99,0.000000,,2013-02-28 07:32:00,
2013-02-28 02:42:00,53.0,50.0,-100.00,WNW,302,5.0,-999.0,91,0.00,,,-99.99,0.000000,,2013-02-28 07:42:00,
2013-02-28 02:52:00,53.0,50.0,-100.00,WNW,302,5.0,-999.0,91,0.00,,,-99.99,0.000000,,2013-02-28 07:52:00,
2013-02-28 03:01:00,52.0,50.0,-100.00,NW,304,4.0,-999.0,91,0.00,,,-99.99,0.000000,,2013-02-28 08:01:00,
2013-02-28 03:11:00,52.0,50.0,-100.00,NW,317,5.0,-999.0,92,0.00,,,-99.99,0.000000,,2013-02-28 08:11:00,
2013-02-28 03:22:00,52.0,50.0,-100.00,NW,317,5.0,-999.0,92,0.00,,,-99.99,0.000000,,2013-02-28 08:22:00,
2013-02-28 03:32:00,52.0,50.0,-100.00,NW,323,5.0,-999.0,93,0.00,,,-99.99,0.000000,,2013-02-28 08:32:00,
2013-02-28 03:42:00,52.0,50.0,-100.00,NW,321,5.0,-999.0,94,0.00,,,-99.99,0.000000,,2013-02-28 08:42:00,
2013-02-28 03:53:00,52.0,50.0,-100.00,NW,321,5.0,-999.0,94,0.00,,,-99.99,0.000000,,2013-02-28 08:53:00,
2013-02-28 04:03:00,51.0,50.0,-100.00,NW,312,4.0,-999.0,94,0.00,,,-99.99,0.000000,,2013-02-28 09:03:00,
2013-02-28 04:12:00,51.0,50.0,-100.00,NW,307,5.0,-999.0,94,0.00,,,-99.99,0.000000,,2013-02-28 09:12:00,
2013-02-28 04:22:00,51.0,50.0,-100.00,NW,307,5.0,-999.0,94,0.00,,,-99.99,0.000000,,2013-02-28 09:22:00,
2013-02-28 04:32:00,51.0,50.0,-100.00,WNW,282,4.0,-999.0,94,0.00,,,-99.99,0.000000,,2013-02-28 09:32:00,
2013-02-28 04:42:00,51.0,49.0,-100.00,WSW,244,4.0,-999.0,95,0.00,,,-99.99,0.000000,,2013-02-28 09:42:00,
2013-02-28 04:52:00,51.0,49.0,-100.00,WSW,244,4.0,-999.0,95,0.00,,,-99.99,0.000000,,2013-02-28 09:52:00,
2013-02-28 05:02:00,50.0,49.0,-100.00,WSW,255,4.0,-999.0,95,0.00,,,-99.99,0.000000,,2013-02-28 10:02:00,
2013-02-28 05:12:00,50.0,49.0,-100.00,WSW,242,5.0,-999.0,95,0.00,,,-99.99,0.000000,,2013-02-28 10:12:00,
2013-02-28 05:22:00,50.0,49.0,-100.00,WSW,242,5.0,-999.0,95,0.00,,,-99.99,0.000000,,2013-02-28 10:22:00,
2013-02-28 05:32:00,51.0,49.0,-100.00,West,278,5.0,-999.0,95,0.00,,,-99.99,0.000000,,2013-02-28 10:32:00,
2013-02-28 05:42:00,51.0,50.0,-100.00,NW,307,5.0,-999.0,95,0.00,,,-99.99,0.000000,,2013-02-28 10:42:00,
2013-02-28 05:52:00,51.0,50.0,-100.00,NW,307,5.0,-999.0,95,0.00,,,-99.99,0.000000,,2013-02-28 10:52:00,
2013-02-28 06:01:00,52.0,51.0,-100.00,NW,323,6.0,-999.0,96,0.00,,,-99.99,0.000000,,2013-02-28 11:01:00,
2013-02-28 06:11:00,52.0,51.0,-100.00,NW,319,5.0,-999.0,96,0.00,,,-99.99,0.000000,,2013-02-28 11:11:00,
2013-02-28 06:22:00,52.0,51.0,-100.00,NW,319,5.0,-999.0,96,0.00,,,-99.99,0.000000,,2013-02-28 11:22:00,
2013-02-28 06:32:00,52.0,51.0,-100.00,NW,316,4.0,-999.0,96,0.00,,,-99.99,0.000000,,2013-02-28 11:32:00,
2013-02-28 06:42:00,53.0,52.0,-100.00,NW,308,5.0,-999.0,96,0.00,,,-99.99,0.000000,,2013-02-28 11:42:00,
2013-02-28 06:52:00,53.0,52.0,-100.00,NW,308,5.0,-999.0,96,0.00,,,-99.99,0.000000,,2013-02-28 11:52:00,
2013-02-28 07:02:00,53.0,52.0,-100.00,NW,312,4.0,-999.0,96,0.00,,,-99.99,0.300000,,2013-02-28 12:02:00,
2013-02-28 07:12:00,53.0,52.0,-100.00,WNW,302,4.0,-999.0,96,0.00,,,-99.99,2.600000,,2013-02-28 12:12:00,
2013-02-28 07:22:00,53.0,52.0,-100.00,WNW,302,4.0,-999.0,96,0.00,,,-99.99,2.600000,,2013-02-28 12:22:00,
2013-02-28 07:32:00,53.0,52.0,-100.00,NW,308,4.0,-999.0,95,0.00,,,-99.99,8.900000,,2013-02-28 12:32:00,
2013-02-28 07:42:00,53.0,52.0,-100.00,WNW,301,3.0,-999.0,95,0.00,,,-99.99,20.299999,,2013-02-28 12:42:00,
2013-02-28 07:52:00,53.0,52.0,-100.00,WNW,301,3.0,-999.0,95,0.00,,,-99.99,20.299999,,2013-02-28 12:52:00,
2013-02-28 08:02:00,54.0,53.0,-100.00,WNW,289,2.0,-999.0,95,0.00,,,-99.99,35.200001,,2013-02-28 13:02:00,
2013-02-28 08:12:00,54.0,53.0,-100.00,WNW,282,2.0,-999.0,95,0.00,,,-99.99,56.200001,,2013-02-28 13:12:00,
2013-02-28 08:22:00,54.0,53.0,-100.00,WNW,282,2.0,-999.0,95,0.00,,,-99.99,56.200001,,2013-02-28 13:22:00,
2013-02-28 08:32:00,55.0,54.0,-100.00,West,281,1.0,-999.0,95,0.00,,,-99.99,116.300003,,2013-02-28 13:32:00,
2013-02-28 08:42:00,56.0,54.0,-100.00,WNW,292,3.0,-999.0,93,0.00,,,-99.99,103.400002,,2013-02-28 13:42:00,
2013-02-28 08:52:00,56.0,54.0,-100.00,WNW,292,3.0,-999.0,93,0.00,,,-99.99,103.400002,,2013-02-28 13:52:00,
2013-02-28 09:01:00,58.0,55.0,-100.00,NW,310,3.0,-999.0,90,0.00,,,-99.99,244.300003,,2013-02-28 14:01:00,
2013-02-28 09:11:00,60.0,55.0,-100.00,NW,312,4.0,-999.0,83,0.00,,,-99.99,353.899994,,2013-02-28 14:11:00,
2013-02-28 09:22:00,60.0,55.0,-100.00,NW,312,4.0,-999.0,83,0.00,,,-99.99,353.899994,,2013-02-28 14:22:00,
2013-02-28 09:32:00,62.0,55.0,-100.00,NNW,328,5.0,-999.0,77,0.00,,,-99.99,430.700012,,2013-02-28 14:32:00,
2013-02-28 09:42:00,62.0,55.0,-100.00,NNW,328,5.0,-999.0,77,0.00,,,-99.99,430.700012,,2013-02-28 14:42:00,
2013-02-28 09:52:00,63.0,54.0,-100.00,NW,323,7.0,-999.0,73,0.00,,,-99.99,319.100006,,2013-02-28 14:52:00,
2013-02-28 10:02:00,63.0,54.0,-100.00,NW,316,8.0,-999.0,71,0.00,,,-99.99,470.500000,,2013-02-28 15:02:00,
2013-02-28 10:11:00,64.0,54.0,-100.00,NW,318,7.0,-999.0,67,0.00,,,-99.99,561.900024,,2013-02-28 15:11:00,
2013-02-28 10:22:00,64.0,54.0,-100.00,NW,318,7.0,-999.0,67,0.00,,,-99.99,561.900024,,2013-02-28 15:22:00,
2013-02-28 10:32:00,65.0,52.0,-100.00,NW,315,8.0,-999.0,63,0.00,,,-99.99,603.200012,,2013-02-28 15:32:00,
2013-02-28 10:42:00,66.0,51.0,-100.00,NNW,333,7.0,-999.0,59,0.00,,,-99.99,640.599976,,2013-02-28 15:42:00,
2013-02-28 10:52:00,66.0,51.0,-100.00,NNW,333,7.0,-999.0,59,0.00,,,-99.99,640.599976,,2013-02-28 15:52:00,
2013-02-28 11:02:00,67.0,51.0,-100.00,NW,319,7.0,-999.0,56,0.00,,,-99.99,674.200012,,2013-02-28 16:02:00,
2013-02-28 11:12:00,67.0,50.0,-100.00,NNW,328,7.0,-999.0,54,0.00,,,-99.99,703.000000,,2013-02-28 16:12:00,
2013-02-28 11:22:00,67.0,50.0,-100.00,NNW,328,7.0,-999.0,54,0.00,,,-99.99,703.000000,,2013-02-28 16:22:00,
2013-02-28 11:32:00,68.0,50.0,-100.00,NW,324,6.0,-999.0,51,0.00,,,-99.99,769.000000,,2013-02-28 16:32:00,
2013-02-28 11:42:00,69.0,50.0,-100.00,NW,323,6.0,-999.0,50,0.00,,,-99.99,719.000000,,2013-02-28 16:42:00,
2013-02-28 11:52:00,69.0,50.0,-100.00,NW,323,6.0,-999.0,50,0.00,,,-99.99,719.000000,,2013-02-28 16:52:00,
2013-02-28 12:02:00,69.0,50.0,-100.00,NNW,333,6.0,-999.0,51,0.00,,,-99.99,771.000000,,2013-02-28 17:02:00,
2013-02-28 12:12:00,70.0,50.0,-100.00,WNW,301,7.0,-999.0,49,0.00,,,-99.99,785.000000,,2013-02-28 17:12:00,
2013-02-28 12:22:00,70.0,50.0,-100.00,WNW,301,7.0,-999.0,49,0.00,,,-99.99,785.000000,,2013-02-28 17:22:00,
2013-02-28 12:32:00,71.0,51.0,-100.00,NW,310,7.0,-999.0,48,0.00,,,-99.99,798.000000,,2013-02-28 17:32:00,
2013-02-28 12:42:00,71.0,51.0,-100.00,WNW,283,7.0,-999.0,50,0.00,,,-99.99,821.000000,,2013-02-28 17:42:00,
2013-02-28 12:53:00,71.0,51.0,-100.00,WNW,283,7.0,-999.0,50,0.00,,,-99.99,821.000000,,2013-02-28 17:53:00,
2013-02-28 13:02:00,71.0,52.0,-100.00,WNW,288,6.0,-999.0,49,0.00,,,-99.99,800.000000,,2013-02-28 18:02:00,
2013-02-28 13:12:00,72.0,51.0,-100.00,WNW,287,7.0,-999.0,48,0.00,,,-99.99,791.000000,,2013-02-28 18:12:00,
2013-02-28 13:22:00,72.0,51.0,-100.00,WNW,287,7.0,-999.0,48,0.00,,,-99.99,791.000000,,2013-02-28 18:22:00,
2013-02-28 13:32:00,71.0,51.0,-100.00,WNW,292,7.0,-999.0,48,0.00,,,-99.99,608.599976,,2013-02-28 18:32:00,
2013-02-28 13:42:00,71.0,51.0,-100.00,WNW,293,6.0,-999.0,48,0.00,,,-99.99,617.200012,,2013-02-28 18:42:00,
2013-02-28 13:52:00,71.0,51.0,-100.00,WNW,293,6.0,-999.0,48,0.00,,,-99.99,617.200012,,2013-02-28 18:52:00,
2013-02-28 14:02:00,72.0,52.0,-100.00,West,281,8.0,-999.0,48,0.00,,,-99.99,685.400024,,2013-02-28 19:02:00,
2013-02-28 14:11:00,73.0,51.0,-100.00,West,278,9.0,-999.0,46,0.00,,,-99.99,753.000000,,2013-02-28 19:11:00,
2013-02-28 14:22:00,73.0,51.0,-100.00,West,278,9.0,-999.0,46,0.00,,,-99.99,753.000000,,2013-02-28 19:22:00,
2013-02-28 14:32:00,74.0,51.0,-100.00,West,275,9.0,-999.0,44,0.00,,,-99.99,728.000000,,2013-02-28 19:32:00,
2013-02-28 14:42:00,75.0,50.0,-100.00,West,276,9.0,-999.0,42,0.00,,,-99.99,693.599976,,2013-02-28 19:42:00,
2013-02-28 14:52:00,75.0,50.0,-100.00,West,276,9.0,-999.0,42,0.00,,,-99.99,693.599976,,2013-02-28 19:52:00,
2013-02-28 15:01:00,75.0,49.0,-100.00,West,262,12.0,-999.0,39,0.00,,,-99.99,671.299988,,2013-02-28 20:01:00,
2013-02-28 15:12:00,75.0,48.0,-100.00,West,267,11.0,-999.0,38,0.00,,,-99.99,635.799988,,2013-02-28 20:12:00,
2013-02-28 15:22:00,75.0,48.0,-100.00,West,267,11.0,-999.0,38,0.00,,,-99.99,635.799988,,2013-02-28 20:22:00,
2013-02-28 15:32:00,74.0,49.0,-100.00,West,279,11.0,-999.0,40,0.00,,,-99.99,562.799988,,2013-02-28 20:32:00,
2013-02-28 15:42:00,74.0,49.0,-100.00,WNW,284,12.0,-999.0,40,0.00,,,-99.99,550.599976,,2013-02-28 20:42:00,
2013-02-28 15:52:00,74.0,49.0,-100.00,WNW,284,12.0,-999.0,40,0.00,,,-99.99,550.599976,,2013-02-28 20:52:00,
2013-02-28 16:02:00,74.0,49.0,-100.00,WNW,282,11.0,-999.0,41,0.00,,,-99.99,510.299988,,2013-02-28 21:02:00,
2013-02-28 16:11:00,74.0,49.0,-100.00,West,274,9.0,-999.0,41,0.00,,,-99.99,465.500000,,2013-02-28 21:11:00,
2013-02-28 16:22:00,74.0,49.0,-100.00,West,274,9.0,-999.0,41,0.00,,,-99.99,465.500000,,2013-02-28 21:22:00,
2013-02-28 16:32:00,73.0,49.0,-100.00,West,270,12.0,-999.0,42,0.00,,,-99.99,398.899994,,2013-02-28 21:32:00,
2013-02-28 16:42:00,73.0,50.0,-100.00,West,280,10.0,-999.0,44,0.00,,,-99.99,363.700012,,2013-02-28 21:42:00,
2013-02-28 16:52:00,73.0,50.0,-100.00,West,280,10.0,-999.0,44,0.00,,,-99.99,363.700012,,2013-02-28 21:52:00,
2013-02-28 17:01:00,71.0,50.0,-100.00,WNW,287,9.0,-999.0,47,0.00,,,-99.99,169.500000,,2013-02-28 22:01:00,
2013-02-28 17:11:00,71.0,48.0,-100.00,WNW,293,10.0,-999.0,44,0.00,,,-99.99,115.699997,,2013-02-28 22:11:00,
2013-02-28 17:22:00,71.0,48.0,-100.00,WNW,293,10.0,-999.0,44,0.00,,,-99.99,115.699997,,2013-02-28 22:22:00,
2013-02-28 17:32:00,70.0,47.0,-100.00,WNW,288,10.0,-999.0,43,0.00,,,-99.99,110.400002,,2013-02-28 22:32:00,
2013-02-28 17:42:00,69.0,47.0,-100.00,WNW,283,9.0,-999.0,45,0.00,,,-99.99,66.400002,,2013-02-28 22:42:00,
2013-02-28 17:52:00,69.0,47.0,-100.00,WNW,283,9.0,-999.0,45,0.00,,,-99.99,66.400002,,2013-02-28 22:52:00,
2013-02-28 18:01:00,68.0,48.0,-100.00,West,280,8.0,-999.0,47,0.00,,,-99.99,50.500000,,2013-02-28 23:01:00,
2013-02-28 18:11:00,67.0,49.0,-100.00,West,271,7.0,-999.0,51,0.00,,,-99.99,19.600000,,2013-02-28 23:11:00,
2013-02-28 18:22:00,67.0,49.0,-100.00,West,271,7.0,-999.0,51,0.00,,,-99.99,19.600000,,2013-02-28 23:22:00,
2013-02-28 18:32:00,66.0,50.0,-100.00,West,269,8.0,-999.0,55,0.00,,,-99.99,16.400000,,2013-02-28 23:32:00,
2013-02-28 18:42:00,65.0,49.0,-100.00,West,269,7.0,-999.0,56,0.00,,,-99.99,4.500000,,2013-02-28 23:42:00,
2013-02-28 18:53:00,65.0,49.0,-100.00,West,269,7.0,-999.0,56,0.00,,,-99.99,4.500000,,2013-02-28 23:53:00,
2013-02-28 19:02:00,65.0,49.0,-100.00,West,266,7.0,-999.0,57,0.00,,,-99.99,1.000000,,2013-03-01 00:02:00,
2013-02-28 19:11:00,64.0,50.0,-100.00,West,263,7.0,-999.0,59,0.00,,,-99.99,0.000000,,2013-03-01 00:11:00,
2013-02-28 19:22:00,64.0,50.0,-100.00,West,263,7.0,-999.0,59,0.00,,,-99.99,0.000000,,2013-03-01 00:22:00,
2013-02-28 19:32:00,64.0,50.0,-100.00,West,262,6.0,-999.0,60,0.00,,,-99.99,0.000000,,2013-03-01 00:32:00,
2013-02-28 19:42:00,63.0,50.0,-100.00,West,264,5.0,-999.0,63,0.00,,,-99.99,0.000000,,2013-03-01 00:42:00,
2013-02-28 19:52:00,63.0,50.0,-100.00,West,264,5.0,-999.0,63,0.00,,,-99.99,0.000000,,2013-03-01 00:52:00,
2013-02-28 20:01:00,62.0,50.0,-100.00,West,268,5.0,-999.0,64,0.00,,,-99.99,0.000000,,2013-03-01 01:01:00,
2013-02-28 20:11:00,61.0,50.0,-100.00,West,272,5.0,-999.0,67,0.00,,,-99.99,0.000000,,2013-03-01 01:11:00,
2013-02-28 20:21:00,61.0,50.0,-100.00,West,272,5.0,-999.0,67,0.00,,,-99.99,0.000000,,2013-03-01 01:21:00,
2013-02-28 20:32:00,60.0,51.0,-100.00,West,277,5.0,-999.0,70,0.00,,,-99.99,0.000000,,2013-03-01 01:32:00,
2013-02-28 20:42:00,59.0,51.0,-100.00,West,274,4.0,-999.0,73,0.00,,,-99.99,0.000000,,2013-03-01 01:42:00,
2013-02-28 20:52:00,59.0,51.0,-100.00,West,274,4.0,-999.0,73,0.00,,,-99.99,0.000000,,2013-03-01 01:52:00,
2013-02-28 21:01:00,59.0,51.0,-100.00,West,275,5.0,-999.0,74,0.00,,,-99.99,0.000000,,2013-03-01 02:01:00,
2013-02-28 21:11:00,59.0,51.0,-100.00,WNW,292,5.0,-999.0,75,0.00,,,-99.99,0.000000,,2013-03-01 02:11:00,
2013-02-28 21:21:00,59.0,51.0,-100.00,WNW,292,5.0,-999.0,75,0.00,,,-99.99,0.000000,,2013-03-01 02:21:00,
2013-02-28 21:32:00,58.0,51.0,-100.00,WNW,298,5.0,-999.0,75,0.00,,,-99.99,0.000000,,2013-03-01 02:32:00,
2013-02-28 21:42:00,58.0,50.0,-100.00,WNW,292,3.0,-999.0,76,0.00,,,-99.99,0.000000,,2013-03-01 02:42:00,
2013-02-28 21:52:00,58.0,50.0,-100.00,WNW,292,3.0,-999.0,76,0.00,,,-99.99,0.000000,,2013-03-01 02:52:00,
2013-02-28 22:02:00,57.0,50.0,-100.00,WNW,290,4.0,-999.0,78,0.00,,,-99.99,0.000000,,2013-03-01 03:02:00,
2013-02-28 22:11:00,56.0,50.0,-100.00,WNW,299,5.0,-999.0,80,0.00,,,-99.99,0.000000,,2013-03-01 03:11:00,
2013-02-28 22:21:00,56.0,50.0,-100.00,WNW,299,5.0,-999.0,80,0.00,,,-99.99,0.000000,,2013-03-01 03:21:00,
2013-02-28 22:32:00,56.0,51.0,-100.00,WNW,303,4.0,-999.0,81,0.00,,,-99.99,0.000000,,2013-03-01 03:32:00,
2013-02-28 22:42:00,56.0,51.0,-100.00,WNW,303,4.0,-999.0,81,0.00,,,-99.99,0.000000,,2013-03-01 03:42:00,
2013-02-28 22:52:00,55.0,50.0,-100.00,WNW,298,4.0,-999.0,84,0.00,,,-99.99,0.000000,,2013-03-01 03:52:00,
2013-02-28 23:01:00,55.0,51.0,-100.00,WNW,297,5.0,-999.0,86,0.00,,,-99.99,0.000000,,2013-03-01 04:01:00,
2013-02-28 23:12:00,54.0,51.0,-100.00,WNW,297,4.0,-999.0,86,0.00,,,-99.99,0.000000,,2013-03-01 04:12:00,
2013-02-28 23:22:00,54.0,51.0,-100.00,WNW,297,4.0,-999.0,86,0.00,,,-99.99,0.000000,,2013-03-01 04:22:00,
2013-02-28 23:32:00,54.0,50.0,-100.00,NW,304,5.0,-999.0,88,0.00,,,-99.99,0.000000,,2013-03-01 04:32:00,
2013-02-28 23:42:00,54.0,51.0,-100.00,NW,316,6.0,-999.0,89,0.00,,,-99.99,0.000000,,2013-03-01 04:42:00,
2013-02-28 23:52:00,54.0,51.0,-100.00,NW,316,6.0,-999.0,89,0.00,,,-99.99,0.000000,,2013-03-01 04:52:00,